Location: Laupheim
(48.2265°N, 9.8829°E)
Time: 04:16:41
(UTC+02:00)

ISS - Pass Details

Date: 07 January 2018
Orbit: 402 x 408 km, 51.6° (Epoch: 23 July)

Event Time Altitude Azimuth Distance (km) Brightness Sun altitude
Exits shadow 06:07:39 45° 4° (N) 584 -3.2 -19.6°
Drops below altitude 10° 06:10:55 10° 78° (ENE) 1,504 0.0 -19.0°
Enters shadow 07:04:32 -74° 282° (WNW) 12,675 3.7 -10.5°
Maximum altitude 07:44:32 88° 206° (SSW) 426 -3.7 -4.5°
